sat.trackr.live / text

‹ back to catalog

QIANFAN-3

NORAD 60381 · 2024-140C

PAYLOAD ACTIVE UNKNOWN

§ Identity

Operator
Country
PRC
Launch date
2024-08-06
Launch site
TAISC
Launch vehicle
Mass (kg)
RCS (m²)

External: N2YO · Heavens-Above · Gunter

§ Orbital elements

Epoch: 2026-09-22T20:02:42.607968Z

Period
106.59 min
Inclination
88.9643°
Eccentricity
0.0016048
Mean motion
13.51023210 rev/d
Perigee alt
1,056.5 km
Apogee alt
1,080.4 km
Semi-major
7,446.6 km
B*
4.1691e-5
RAAN
269.6937°
Arg perigee
98.1442°
Mean anomaly
262.1530°
Rev number
10,567

§ Raw data

QIANFAN-31 60381U 24140C   26265.83521537  .00000039  00000+0  41691-4 0  99902 60381  88.9643 269.6937 0016048  98.1442 262.1530 13.51023210105673

JSON: /api/v1/satellites/60381 · /tle

For live sub-satellite position, see the globe view (requires WebGL).

§ Visibility from observer

Set your observer location to see the next 7 days of passes ≥ 10°. The values pass through the URL so the page stays shareable.

No JS? Fill the form by hand. The geolocation button needs JavaScript.